Location: Belfast
(54.5830°N, 5.9330°W)
Time: 14:51:22
(UTC+01:00)

ISS - Pass Details

Date: 16 September 2018
Orbit: 402 x 408 km, 51.6° (Epoch: 18 September)

Event Time Altitude Azimuth Distance (km) Brightness Sun altitude
Exits shadow 04:44:15 15° 152° (SSE) 1,211 -1.5 -18.9°
Drops below altitude 10° 04:44:59 10° 144° (SE) 1,457 -1.0 -18.8°
Sets 04:47:14 0° 132° (SE) 2,313 0.2 -18.5°
